Weather History for Storm Lake, IA

Change the Weather History Date:

Monday, March 18, 2013

  Actual Average Record
Temperature  
Mean Temperature 24 °F -  
Max Temperature 32 °F 41 °F 83 °F (2012)
Min Temperature 15 °F 25 °F 15 °F (2013)
Degree Days  
Heating Degree Days 42    
Moisture  
Dew Point 19 °F    
Average Humidity 81    
Maximum Humidity 100    
Minimum Humidity 63    
Precipitation  
Precipitation 0.01 in - - ()
Sea Level Pressure  
Sea Level Pressure 29.78 in    
Wind  
Wind Speed 24 mph (WNW)    
Max Wind Speed 37 mph    
Max Gust Speed 45 mph    
Visibility 6 miles    
Events Rain , Snow    
Averages and records for this station are not official NWS values.
T = Trace of Precipitation, MM = Missing Value Source: NWS Daily Summary

Daily Weather History Graph

Daily Weather History Graph

Search for Another Location

Airport:

Trip Planner

Search our weather history database for the weather conditions in past years. The results will help you decide how hot, cold, wet, or windy it might be!

Date:

Astronomy

Mar. 18, 2013 Rise Set
Actual Time 7:27 AM CDT 7:31 PM CDT
Civil Twilight 6:59 AM CDT 7:59 PM CDT
Nautical Twilight 6:26 AM CDT 8:32 PM CDT
Astronomical Twilight 5:52 AM CDT 9:05 PM CDT
Moon 11:20 AM CDT (3/18) 1:38 AM CDT (3/18)
Length of Visible Light 13h 00m
Length of Day
12h 04m
Waxing Crescent, 41% of the Moon is Illuminated
Mar 18
Waxing Crescent
Mar 19
First Quarter
Mar 27
Full
Apr 2
Last Quarter
Apr 10
New

Hourly Weather History & Observations

Time (CDT) Temp. Windchill Dew Point Humidity Pressure Visibility Wind Dir Wind Speed Gust Speed Precip Events Conditions
12:15 AM 30.2 °F 17.8 °F 30.2 °F 100% 29.74 in 3.0 mi SE 19.6 mph 26.5 mph N/A   Overcast
12:35 AM 30.2 °F 17.1 °F 30.2 °F 100% 29.72 in 3.0 mi SE 21.9 mph - N/A   Overcast
12:55 AM 30.2 °F 16.5 °F 30.2 °F 100% 29.71 in 4.0 mi SSE 24.2 mph 32.2 mph N/A   Overcast
1:15 AM 30.2 °F 15.7 °F 30.2 °F 100% 29.68 in 2.5 mi SSE 27.6 mph - N/A   Overcast
1:35 AM 30.2 °F 16.5 °F 30.2 °F 100% 29.67 in 3.0 mi SE 24.2 mph 34.5 mph N/A   Overcast
1:55 AM 30.2 °F 16.2 °F 30.2 °F 100% 29.66 in 3.0 mi SSE 25.3 mph - N/A   Overcast
2:15 AM 30.2 °F 16.8 °F 30.2 °F 100% 29.67 in 3.0 mi SSE 23.0 mph - N/A   Overcast
2:35 AM 32.0 °F 20.1 °F 32.0 °F 100% 29.70 in 3.0 mi South 19.6 mph 25.3 mph N/A   Overcast
2:55 AM 32.0 °F 21.2 °F 32.0 °F 100% 29.71 in 2.5 mi South 16.1 mph - N/A Snow Light Snow
3:15 AM 32.0 °F 21.6 °F 32.0 °F 100% 29.70 in 4.0 mi SSW 15.0 mph - N/A   Overcast
3:35 AM 32.0 °F 21.2 °F 32.0 °F 100% 29.69 in 1.0 mi SSW 16.1 mph - N/A Snow Light Snow
3:55 AM 32.0 °F 20.5 °F 32.0 °F 100% 29.69 in 0.5 mi SSW 18.4 mph - 0.01 in Snow Light Snow
4:15 AM 32.0 °F 21.2 °F 32.0 °F 100% 29.67 in 1.8 mi SSW 16.1 mph - N/A Rain Light Rain
4:35 AM 32.0 °F 21.2 °F 32.0 °F 100% 29.67 in 2.0 mi SSW 16.1 mph - N/A   Overcast
4:55 AM 32.0 °F 20.1 °F 32.0 °F 100% 29.66 in 1.8 mi SSW 19.6 mph - N/A   Overcast
5:15 AM 32.0 °F 20.1 °F 32.0 °F 100% 29.65 in 2.5 mi SW 19.6 mph - N/A   Overcast
5:35 AM 32.0 °F 20.5 °F 32.0 °F 100% 29.65 in 3.0 mi SW 18.4 mph - N/A   Overcast
5:55 AM 32.0 °F 20.8 °F 32.0 °F 100% 29.65 in 3.0 mi SW 17.3 mph 24.2 mph N/A   Overcast
6:15 AM 32.0 °F 19.2 °F 32.0 °F 100% 29.66 in 9.0 mi WNW 23.0 mph 32.2 mph N/A   Overcast
6:35 AM 32.0 °F 18.6 °F 28.4 °F 87% 29.66 in 10.0 mi WNW 25.3 mph 34.5 mph N/A   Overcast
6:55 AM 30.2 °F 16.2 °F 28.4 °F 93% 29.67 in 10.0 mi WNW 25.3 mph - N/A   Overcast
7:15 AM 30.2 °F 16.2 °F 26.6 °F 86% 29.68 in 10.0 mi WNW 25.3 mph 31.1 mph N/A   Overcast
7:35 AM 28.4 °F 13.3 °F 26.6 °F 93% 29.69 in 7.0 mi WNW 27.6 mph 34.5 mph N/A   Overcast
7:55 AM 26.6 °F 12.4 °F 23.0 °F 86% 29.70 in 9.0 mi NW 21.9 mph 33.4 mph N/A   Overcast
8:15 AM 24.8 °F 8.1 °F 21.2 °F 86% 29.69 in 3.0 mi WNW 28.8 mph 38.0 mph N/A   Overcast
8:35 AM 24.8 °F 8.4 °F 19.4 °F 80% 29.71 in 6.0 mi WNW 27.6 mph 34.5 mph N/A   Haze
8:55 AM 23.0 °F 6.3 °F 19.4 °F 86% 29.71 in 7.0 mi WNW 26.5 mph 32.2 mph N/A   Overcast
9:15 AM 23.0 °F 6.0 °F 17.6 °F 80% 29.72 in 6.0 mi WNW 27.6 mph 35.7 mph N/A   Haze
9:35 AM 23.0 °F 7.2 °F 15.8 °F 74% 29.72 in 10.0 mi NW 23.0 mph 32.2 mph N/A   Scattered Clouds
9:55 AM 21.2 °F 3.3 °F 15.8 °F 80% 29.73 in 6.0 mi NW 28.8 mph 35.7 mph N/A   Haze
10:15 AM 21.2 °F 3.5 °F 15.8 °F 80% 29.74 in 5.0 mi NW 27.6 mph - N/A Snow Light Snow
10:35 AM 21.2 °F 4.2 °F 15.8 °F 80% 29.75 in 2.0 mi NW 25.3 mph 35.7 mph N/A Snow Light Snow
10:55 AM 21.2 °F 3.9 °F 14.0 °F 74% 29.76 in 8.0 mi NW 26.5 mph 32.2 mph N/A   Overcast
11:15 AM 19.4 °F 1.4 °F 15.8 °F 86% 29.77 in 1.5 mi WNW 26.5 mph - N/A Snow Light Snow
11:35 AM 21.2 °F 3.3 °F 14.0 °F 74% 29.78 in 2.5 mi NW 28.8 mph 35.7 mph N/A Snow Light Snow
11:55 AM 19.4 °F 1.8 °F 14.0 °F 80% 29.78 in 2.5 mi WNW 25.3 mph 32.2 mph N/A Snow Light Snow
12:15 PM 21.2 °F 1.9 °F 14.0 °F 74% 29.78 in 2.0 mi WNW 34.5 mph - N/A Snow Light Snow
12:35 PM 19.4 °F 1.4 °F 12.2 °F 74% 29.79 in 3.0 mi NW 26.5 mph 40.3 mph N/A Snow Light Snow
12:55 PM 19.4 °F -0.3 °F 12.2 °F 74% 29.80 in 4.0 mi WNW 33.4 mph 39.1 mph N/A   Haze
1:15 PM 17.6 °F -2.8 °F 12.2 °F 79% 29.81 in 0.8 mi WNW 33.4 mph 40.3 mph N/A Snow Light Snow
1:35 PM 19.4 °F -0.6 °F 10.4 °F 68% 29.81 in - WNW 34.5 mph 40.3 mph N/A Rain Light Freezing Rain
1:55 PM 19.4 °F -0.8 °F 10.4 °F 68% 29.82 in 4.0 mi WNW 35.7 mph 42.6 mph N/A   Haze
2:15 PM 19.4 °F 0.5 °F 12.2 °F 74% 29.82 in 3.0 mi WNW 29.9 mph 40.3 mph N/A Snow Light Snow
2:35 PM 19.4 °F 0.5 °F 12.2 °F 74% 29.83 in 2.5 mi WNW 29.9 mph 36.8 mph N/A Snow Light Snow
2:55 PM 21.2 °F 2.2 °F 12.2 °F 68% 29.82 in 4.0 mi WNW 33.4 mph - N/A Snow Light Snow
3:15 PM 19.4 °F -1.1 °F 12.2 °F 74% 29.82 in 3.0 mi WNW 36.8 mph 44.9 mph N/A Snow Light Snow
3:35 PM 21.2 °F 2.7 °F 12.2 °F 68% 29.82 in 4.0 mi WNW 31.1 mph 42.6 mph N/A   Haze
3:55 PM 21.2 °F 1.9 °F 12.2 °F 68% 29.82 in 6.0 mi WNW 34.5 mph 42.6 mph N/A   Haze
4:15 PM 21.2 °F 1.9 °F 12.2 °F 68% 29.83 in 6.0 mi WNW 34.5 mph 43.7 mph N/A Rain Light Freezing Rain
4:35 PM 21.2 °F 2.7 °F 14.0 °F 74% 29.84 in 9.0 mi WNW 31.1 mph 40.3 mph N/A Rain Light Freezing Rain
4:55 PM 23.0 °F 6.0 °F 14.0 °F 68% 29.84 in 10.0 mi NW 27.6 mph 41.4 mph N/A Rain Light Freezing Rain
5:15 PM 21.2 °F 3.0 °F 14.0 °F 74% 29.85 in 9.0 mi WNW 29.9 mph 39.1 mph N/A   Overcast
5:35 PM 21.2 °F 3.5 °F 14.0 °F 74% 29.85 in 9.0 mi WNW 27.6 mph 36.8 mph N/A Rain Light Freezing Rain
5:55 PM 23.0 °F 5.4 °F 14.0 °F 68% 29.85 in 10.0 mi WNW 29.9 mph 35.7 mph N/A   Overcast
6:15 PM 23.0 °F 6.3 °F 14.0 °F 68% 29.86 in 10.0 mi NW 26.5 mph 35.7 mph N/A   Mostly Cloudy
6:35 PM 23.0 °F 4.6 °F 12.2 °F 63% 29.87 in 10.0 mi WNW 33.4 mph 40.3 mph N/A   Partly Cloudy
6:55 PM 21.2 °F 3.9 °F 12.2 °F 68% 29.88 in 10.0 mi NW 26.5 mph 34.5 mph N/A   Mostly Cloudy
7:15 PM 21.2 °F 4.9 °F 12.2 °F 68% 29.89 in 10.0 mi NW 23.0 mph 31.1 mph N/A   Overcast
7:35 PM 21.2 °F 4.9 °F 12.2 °F 68% 29.89 in 10.0 mi NW 23.0 mph 29.9 mph N/A   Mostly Cloudy
7:55 PM 21.2 °F 4.5 °F 10.4 °F 63% 29.91 in 10.0 mi NW 24.2 mph 33.4 mph N/A   Clear
8:15 PM 19.4 °F 3.2 °F 10.4 °F 68% 29.92 in 10.0 mi NW 20.7 mph 29.9 mph N/A   Clear
8:35 PM 19.4 °F 3.2 °F 10.4 °F 68% 29.93 in 10.0 mi NW 20.7 mph - N/A   Clear
8:55 PM 19.4 °F 2.8 °F 10.4 °F 68% 29.94 in 10.0 mi NW 21.9 mph 27.6 mph N/A   Clear
9:15 PM 19.4 °F 3.2 °F 10.4 °F 68% 29.95 in 10.0 mi WNW 20.7 mph 32.2 mph N/A   Clear
9:35 PM 17.6 °F 0.5 °F 10.4 °F 73% 29.95 in 10.0 mi NW 21.9 mph - N/A   Clear
9:55 PM 17.6 °F 0.9 °F 10.4 °F 73% 29.96 in 10.0 mi NW 20.7 mph - N/A   Clear
10:15 PM 17.6 °F 0.5 °F 8.6 °F 68% 29.96 in 10.0 mi NW 21.9 mph 31.1 mph N/A   Clear
10:55 PM 17.6 °F 0.5 °F 10.4 °F 73% 29.95 in 10.0 mi NW 21.9 mph - N/A   Clear
11:15 PM 17.6 °F 0.9 °F 10.4 °F 73% 29.95 in 10.0 mi NW 20.7 mph 27.6 mph N/A   Clear
11:35 PM 15.8 °F -1.1 °F 8.6 °F 73% 29.95 in 10.0 mi NW 19.6 mph 25.3 mph N/A   Clear
11:55 PM 15.8 °F -1.1 °F 8.6 °F 73% 29.95 in 10.0 mi NW 19.6 mph 27.6 mph N/A   Clear